{"data":{"norad_id":49020,"epoch":"2026-05-25T04:41:24.918720Z","epoch_age_seconds":48270,"freshness":"FRESH","line1":"1 49020U 21064C   26145.19542730 -.00000149  00000+0 -95433-5 0  9991","line2":"2 49020  44.9958 329.9220 0007381 137.7345 222.4061 14.08533506250988","mean_motion":14.08533506,"eccentricity":0.0007381,"inclination_deg":44.9958,"raan_deg":329.922,"arg_perigee_deg":137.7345,"mean_anomaly_deg":222.4061,"bstar":-9.5433e-6,"rev_number":25098,"period_min":102.2339897394,"perigee_km":859.04868153957,"apogee_km":869.74010638334,"semimajor_km":7242.5313939615,"source":"CELESTRAK","updated_at":"2026-05-25T13:37:57.013631Z"}}